Flag for Poland Weather past 2 weeks in Gdańsk, Poland

Now
43 °F

Clear.


Feels Like: 35 °F
Forecast: 41 / 49 °F
Wind: 15 mph from Northwest

Location: Gdansk-Rebiechowo

Current Time: Apr 19, 2015 at 10:09:38 PM

Latest Report: Apr 19, 2015 at 9:30 PM


Visibility: 10 mi

Pressure: 30.07 "Hg

Humidity: 66%

Dew point: 32 °F

Location of GdańskLocation

Historic Weather in Gdańsk — Graph

°F

Gdańsk temperature yesterday

Maximum temperature yesterday: 46 °F (at 3:00 PM)
Minimum temperature yesterday: 36 °F (at 3:00 AM)
Average temperature yesterday: 41 °F

Past Weeks' High & Low Weather Summary

 TemperatureHumidityPressure
High68 °F (Apr 11, 2:00 PM)100% (Apr 4, 9:30 PM)30.48 "Hg (Apr 4, 9:30 PM)
Low28 °F (Apr 9, 2:30 AM)19% (Apr 9, 1:30 PM)29.59 "Hg (Apr 15, 10:30 PM)
Average43 °F73%30.08 "Hg
* Reported Apr 4 9:00 PM — Apr 19 9:00 PM, Gdańsk, Weather by CustomWeather, © 2015

Note: Actual official high and low records may vary slightly from our data, if they occured in-between our weather recording intervals... More about our weather records

Advertising

Gdańsk weather history for previous 24 hours

 ConditionsComfort  
Time TempWeatherWind HumidityBarometerVisibility
9:00 PM
Sun, Apr 19
43 °FClear.13 mph66%30.09 "Hg10 mi
8:30 PM41 °FSunny.10 mph70%30.09 "Hg10 mi
8:00 PM43 °FSunny.12 mph66%30.09 "Hg10 mi
7:30 PM45 °FSunny.13 mph57%30.09 "Hg10 mi
7:00 PM45 °FSunny.12 mph61%30.07 "Hg10 mi
6:30 PM46 °FSunny.14 mph53%30.09 "Hg10 mi
6:00 PM46 °FPassing clouds.16 mph53%30.09 "HgN/A
5:30 PM46 °FPassing clouds.16 mph53%30.09 "HgN/A
5:00 PM48 °FPassing clouds.17 mph46%30.09 "HgN/A
4:30 PM48 °FPassing clouds.17 mph43%30.09 "HgN/A
4:00 PM48 °FScattered clouds.18 mph46%30.09 "HgN/A
3:30 PM48 °FScattered clouds.15 mph46%30.12 "HgN/A
3:00 PM48 °FScattered clouds.16 mph46%30.12 "HgN/A
2:30 PM48 °FScattered clouds.16 mph50%30.12 "HgN/A
2:00 PM48 °FPassing clouds.14 mph46%30.12 "HgN/A
1:30 PM46 °FPassing clouds.16 mph50%30.12 "HgN/A
1:00 PM46 °FPassing clouds.14 mph57%30.12 "HgN/A
12:30 PM45 °FScattered clouds.14 mph61%30.12 "HgN/A
12:00 PM45 °FScattered clouds.12 mph66%30.12 "HgN/A
11:30 AM43 °FPartly sunny.13 mph71%30.12 "HgN/A
11:00 AM43 °FScattered clouds.15 mph71%30.12 "HgN/A
10:30 AM43 °FScattered clouds.16 mph71%30.12 "HgN/A
10:00 AM45 °FScattered clouds.14 mph66%30.12 "HgN/A
9:30 AM45 °FPassing clouds.13 mph66%30.12 "HgN/A
9:00 AM43 °FPassing clouds.12 mph76%30.09 "HgN/A
8:30 AM43 °FPassing clouds.10 mph76%30.09 "HgN/A
8:00 AM41 °FSunny.9 mph87%30.09 "Hg10 mi
7:30 AM39 °FSunny.7 mph93%30.09 "Hg10 mi
7:00 AM39 °FSunny.6 mph93%30.07 "Hg10 mi
6:30 AM39 °FClear.7 mph93%30.07 "Hg10 mi
6:00 AM37 °FClear.5 mph93%30.07 "Hg10 mi
5:30 AM37 °FClear.8 mph93%30.07 "Hg10 mi
5:00 AM36 °FClear.5 mph93%30.07 "Hg10 mi
4:30 AM37 °FClear.8 mph87%30.04 "Hg10 mi
4:00 AM39 °FClear.7 mph87%30.04 "Hg10 mi
3:30 AM41 °FPassing clouds.6 mph81%30.04 "HgN/A
3:00 AM41 °FPassing clouds.6 mph81%30.04 "HgN/A
2:30 AM39 °FPassing clouds.6 mph87%30.04 "HgN/A
2:00 AM39 °FPassing clouds.6 mph87%30.07 "HgN/A
1:30 AM39 °FPassing clouds.5 mph81%30.07 "HgN/A
1:00 AM39 °FClear.6 mph81%30.07 "Hg10 mi
12:30 AM39 °FClear.6 mph81%30.07 "Hg10 mi
12:00 AM39 °FClear.6 mph81%30.09 "Hg10 mi
11:30 PM
Sat, Apr 18
37 °FClear.7 mph81%30.09 "Hg10 mi
11:00 PM37 °FClear.6 mph81%30.09 "Hg10 mi
10:30 PM39 °FClear.7 mph70%30.09 "Hg10 mi
10:00 PM39 °FClear.7 mph70%30.09 "Hg10 mi
Weather by CustomWeather, © 2015

See weather overviewHow to use our weather pages